| time (UTC) | temp F | wind direction | speed MPH | gust MPH | rain 1hr in | rain 24hr in | rain mn in | humidity % | barometer mb |
| 20260504010516 | 94 | 178 | 5.0 | 11.0 | 0.00 | 0.00 | 0.00 | 13 | 1007.0 |
| 20260504005535 | 94 | 210 | 4.0 | 14.0 | 0.00 | 0.00 | 0.00 | 13 | 1007.2 |
| 20260504004516 | 94 | 184 | 5.0 | 14.0 | 0.00 | 0.00 | 0.00 | 13 | 1007.2 |
| 20260504003538 | 95 | 222 | 4.0 | 14.0 | 0.00 | 0.00 | 0.00 | 13 | 1007.1 |
| 20260504002538 | 96 | 207 | 5.0 | 15.0 | 0.00 | 0.00 | 0.00 | 13 | 1007.0 |
| 20260504001557 | 97 | 190 | 5.0 | 12.0 | 0.00 | 0.00 | 0.00 | 13 | 1007.0 |
| 20260504000515 | 97 | 191 | 4.0 | 8.0 | 0.00 | 0.00 | 0.00 | 13 | 1007.0 |
| 20260503235517 | 96 | 192 | 4.0 | 11.0 | 0.00 | 0.00 | 0.00 | 14 | 1006.9 |
| 20260503234517 | 96 | 154 | 3.0 | 12.0 | 0.00 | 0.00 | 0.00 | 16 | 1007.0 |
| 20260503233517 | 96 | 125 | 5.0 | 11.0 | 0.00 | 0.00 | 0.00 | 16 | 1007.0 |
| 20260503232518 | 96 | 107 | 3.0 | 7.0 | 0.00 | 0.00 | 0.00 | 15 | 1007.1 |
| 20260503231517 | 97 | 150 | 1.0 | 9.0 | 0.00 | 0.00 | 0.00 | 16 | 1007.2 |
| 20260503230517 | 96 | 178 | 3.0 | 7.0 | 0.00 | 0.00 | 0.00 | 16 | 1007.4 |
| 20260503225516 | 96 | 133 | 4.0 | 9.0 | 0.00 | 0.00 | 0.00 | 16 | 1007.5 |
| 20260503224517 | 96 | 151 | 3.0 | 8.0 | 0.00 | 0.00 | 0.00 | 16 | 1007.9 |
| 20260503223538 | 96 | 144 | 2.0 | 9.0 | 0.00 | 0.00 | 0.00 | 17 | 1008.0 |
| 20260503222517 | 95 | 146 | 4.0 | 13.0 | 0.00 | 0.00 | 0.00 | 17 | 1008.2 |
| 20260503221517 | 95 | 133 | 4.0 | 12.0 | 0.00 | 0.00 | 0.00 | 17 | 1008.3 |
| 20260503220516 | 95 | 148 | 5.0 | 11.0 | 0.00 | 0.00 | 0.00 | 17 | 1008.6 |
| 20260503215516 | 94 | 140 | 4.0 | 11.0 | 0.00 | 0.00 | 0.00 | 18 | 1008.6 |
| 20260503214517 | 94 | 134 | 4.0 | 9.0 | 0.00 | 0.00 | 0.00 | 18 | 1008.8 |
| 20260503213538 | 95 | 277 | 2.0 | 7.0 | 0.00 | 0.00 | 0.00 | 17 | 1009.1 |
| 20260503212521 | 95 | 174 | 4.0 | 10.0 | 0.00 | 0.00 | 0.00 | 18 | 1009.4 |
| 20260503211518 | 95 | 166 | 3.0 | 10.0 | 0.00 | 0.00 | 0.00 | 18 | 1009.6 |
| 20260503210522 | 94 | 131 | 5.0 | 10.0 | 0.00 | 0.00 | 0.00 | 18 | 1009.7 |
| 20260503205522 | 95 | 148 | 6.0 | 10.0 | 0.00 | 0.00 | 0.00 | 18 | 1009.9 |
| 20260503204518 | 94 | 141 | 2.0 | 7.0 | 0.00 | 0.00 | 0.00 | 18 | 1009.9 |
| 20260503203536 | 94 | 158 | 3.0 | 10.0 | 0.00 | 0.00 | 0.00 | 18 | 1010.1 |
| 20260503202517 | 94 | 153 | 3.0 | 10.0 | 0.00 | 0.00 | 0.00 | 18 | 1010.1 |
| 20260503201517 | 93 | 128 | 3.0 | 10.0 | 0.00 | 0.00 | 0.00 | 18 | 1010.3 |
| 20260503200516 | 93 | 147 | 3.0 | 11.0 | 0.00 | 0.00 | 0.00 | 18 | 1010.4 |
| 20260503195517 | 92 | 171 | 4.0 | 8.0 | 0.00 | 0.00 | 0.00 | 19 | 1010.5 |
| 20260503194517 | 91 | 144 | 4.0 | 11.0 | 0.00 | 0.00 | 0.00 | 20 | 1010.5 |
| 20260503193516 | 91 | 147 | 3.0 | 8.0 | 0.00 | 0.00 | 0.00 | 20 | 1010.7 |
| 20260503192536 | 90 | 137 | 4.0 | 10.0 | 0.00 | 0.00 | 0.00 | 19 | 1010.8 |
| 20260503191516 | 91 | 138 | 5.0 | 11.0 | 0.00 | 0.00 | 0.00 | 20 | 1010.9 |
| 20260503190537 | 90 | 137 | 4.0 | 11.0 | 0.00 | 0.00 | 0.00 | 23 | 1011.0 |
| 20260503185517 | 90 | 126 | 4.0 | 10.0 | 0.00 | 0.00 | 0.00 | 23 | 1011.0 |
| 20260503184517 | 90 | 114 | 6.0 | 13.0 | 0.00 | 0.00 | 0.00 | 23 | 1011.0 |
| 20260503183518 | 89 | 97 | 4.0 | 14.0 | 0.00 | 0.00 | 0.00 | 24 | 1011.2 |
| 20260503182516 | 89 | 117 | 5.0 | 13.0 | 0.00 | 0.00 | 0.00 | 25 | 1011.5 |
| 20260503181516 | 88 | 120 | 5.0 | 14.0 | 0.00 | 0.00 | 0.00 | 25 | 1011.6 |
| 20260503180520 | 88 | 119 | 6.0 | 14.0 | 0.00 | 0.00 | 0.00 | 26 | 1011.8 |
| 20260503175517 | 87 | 125 | 6.0 | 12.0 | 0.00 | 0.00 | 0.00 | 26 | 1011.9 |
| 20260503174537 | 86 | 116 | 7.0 | 15.0 | 0.00 | 0.00 | 0.00 | 27 | 1012.0 |
| 20260503173518 | 86 | 113 | 6.0 | 12.0 | 0.00 | 0.00 | 0.00 | 27 | 1011.9 |
| 20260503172517 | 86 | 106 | 5.0 | 15.0 | 0.00 | 0.00 | 0.00 | 27 | 1012.0 |
| 20260503171517 | 85 | 102 | 6.0 | 17.0 | 0.00 | 0.00 | 0.00 | 27 | 1012.1 |
| 20260503170518 | 85 | 107 | 5.0 | 14.0 | 0.00 | 0.00 | 0.00 | 27 | 1012.2 |
| 20260503150516 | 80 | 108 | 6.0 | 15.0 | 0.00 | 0.00 | 0.00 | 32 | 1012.4 |
| 20260503130537 | 76 | 95 | 5.0 | 13.0 | 0.00 | 0.00 | 0.00 | 34 | 1011.7 |
| 20260503110516 | 78 | 122 | 5.0 | 12.0 | 0.00 | 0.00 | 0.00 | 33 | 1011.5 |
| 20260503081518 | 80 | 118 | 2.0 | 7.0 | 0.00 | 0.00 | 0.00 | 26 | 1011.8 |
| 20260503080516 | 80 | 104 | 3.0 | 8.0 | 0.00 | 0.00 | 0.00 | 26 | 1011.8 |
| 20260503072517 | 77 | 119 | 2.0 | 6.0 | 0.00 | 0.00 | 0.00 | 28 | 1011.9 |
| 20260503071516 | 76 | 106 | 0.0 | 2.0 | 0.00 | 0.00 | 0.00 | 30 | 1011.9 |
| 20260503070520 | 76 | 122 | 0.0 | 1.0 | 0.00 | 0.00 | 0.00 | 30 | 1011.7 |
| 20260503054515 | 77 | 0.0 | 0.0 | 0.00 | 0.00 | 0.00 | 25 | 1011.2 | |
| 20260503053516 | 78 | 79 | 0.0 | 2.0 | 0.00 | 0.00 | 0.00 | 23 | 1011.3 |
| 20260503052515 | 78 | 106 | 0.0 | 1.0 | 0.00 | 0.00 | 0.00 | 23 | 1011.4 |
| 20260503051517 | 79 | 0.0 | 0.0 | 0.00 | 0.00 | 0.00 | 23 | 1011.4 | |
| 20260503050516 | 79 | 0.0 | 0.0 | 0.00 | 0.00 | 0.00 | 22 | 1011.4 | |
| 20260503045517 | 79 | 90 | 0.0 | 1.0 | 0.00 | 0.00 | 0.00 | 23 | 1011.3 |
| 20260503044515 | 79 | 86 | 0.0 | 2.0 | 0.00 | 0.00 | 0.00 | 22 | 1011.1 |
| 20260503043517 | 80 | 106 | 0.0 | 1.0 | 0.00 | 0.00 | 0.00 | 21 | 1011.0 |
| 20260503042536 | 81 | 0.0 | 2.0 | 0.00 | 0.00 | 0.00 | 21 | 1010.8 | |
| 20260503041515 | 81 | 43 | 0.0 | 1.0 | 0.00 | 0.00 | 0.00 | 21 | 1010.6 |
| 20260503040515 | 82 | 30 | 0.0 | 1.0 | 0.00 | 0.00 | 0.00 | 20 | 1010.5 |
| 20260503035516 | 83 | 0.0 | 0.0 | 0.00 | 0.00 | 0.00 | 19 | 1010.3 | |
| 20260503034516 | 82 | 14 | 0.0 | 1.0 | 0.00 | 0.00 | 0.00 | 20 | 1010.3 |
| 20260503033515 | 83 | 0.0 | 0.0 | 0.00 | 0.00 | 0.00 | 19 | 1010.2 | |
| 20260503032516 | 83 | 0.0 | 0.0 | 0.00 | 0.00 | 0.00 | 18 | 1010.1 | |
| 20260503031516 | 83 | 0.0 | 0.0 | 0.00 | 0.00 | 0.00 | 19 | 1010.0 | |
| 20260503030515 | 84 | 0.0 | 0.0 | 0.00 | 0.00 | 0.00 | 18 | 1010.0 | |
| 20260503025517 | 84 | 0.0 | 0.0 | 0.00 | 0.00 | 0.00 | 18 | 1010.0 | |
| 20260503024521 | 86 | 0.0 | 0.0 | 0.00 | 0.00 | 0.00 | 17 | 1009.9 | |
| 20260503023517 | 86 | 0.0 | 0.0 | 0.00 | 0.00 | 0.00 | 16 | 1009.8 | |
| 20260503022515 | 87 | 303 | 0.0 | 1.0 | 0.00 | 0.00 | 0.00 | 16 | 1009.7 |
| 20260503021517 | 88 | 225 | 0.0 | 1.0 | 0.00 | 0.00 | 0.00 | 15 | 1009.8 |
| 20260503020515 | 89 | 0.0 | 1.0 | 0.00 | 0.00 | 0.00 | 15 | 1009.8 | |
| 20260503015537 | 89 | 240 | 0.0 | 1.0 | 0.00 | 0.00 | 0.00 | 15 | 1009.9 |
| 20260503014518 | 90 | 255 | 0.0 | 3.0 | 0.00 | 0.00 | 0.00 | 14 | 1009.9 |
| 20260503012516 | 90 | 263 | 0.0 | 1.0 | 0.00 | 0.00 | 0.00 | 14 | 1009.9 |
| 20260503011516 | 90 | 278 | 0.0 | 3.0 | 0.00 | 0.00 | 0.00 | 14 | 1009.9 |